This is the latest recevied weather packets stored in our database for station/object KD9JB-1. If no packets are shown the sender has not sent any weather packets the latest 1 day(s).
| Time | Temp. | Humidity | Pressure | Rain* | Wind** | Luminosity | Snow |
|---|---|---|---|---|---|---|---|
| 1778035295 | 10° C | 93% | 1008.9 hPa | 4.06 mm | - | - | - |
| 1778034995 | 10° C | 93% | 1009.6 hPa | 2.79 mm | - | - | - |
| 1778034695 | 10° C | 93% | 1008.4 hPa | 2.54 mm | - | - | - |
| 1778034395 | 10° C | 93% | 1008.1 hPa | 1.78 mm | - | - | - |
| 1778034095 | 10° C | 93% | 1008.4 hPa | 1.78 mm | - | - | - |
| 1778033795 | 10° C | 93% | 1008.4 hPa | 1.52 mm | - | - | - |
| 1778033495 | 10° C | 93% | 1008 hPa | 1.52 mm | - | - | - |
| 1778033195 | 10° C | 93% | 1007.9 hPa | 1.52 mm | - | - | - |
| 1778032595 | 10° C | 93% | 1007.4 hPa | 1.27 mm | - | - | - |
| 1778032295 | 10° C | 93% | 1007.3 hPa | 1.27 mm | - | - | - |
| 1778031995 | 10° C | 93% | 1007.5 hPa | 1.02 mm | - | - | - |
| 1778031695 | 10° C | 93% | 1007.6 hPa | 0.51 mm | - | - | - |
| 1778031395 | 10° C | 93% | 1007.5 hPa | 0 mm | - | - | - |
| 1778031095 | 10° C | 93% | 1007.4 hPa | 0 mm | - | - | - |
| 1778030795 | 10° C | 93% | 1007.4 hPa | 0 mm | - | - | - |
| 1778030495 | 10° C | 92% | 1007.4 hPa | 0 mm | - | - | - |
| 1778030195 | 10° C | 92% | 1007.4 hPa | 0 mm | - | - | - |
| 1778029895 | 10.56° C | 93% | 1007.4 hPa | 0.25 mm | - | - | - |
| 1778029595 | 10.56° C | 93% | 1007.4 hPa | 1.27 mm | - | - | - |
| 1778029295 | 10.56° C | 93% | 1007.4 hPa | 1.27 mm | - | - | - |
| 1778028995 | 10.56° C | 93% | 1007.3 hPa | 1.27 mm | - | - | - |
| 1778028695 | 10.56° C | 93% | 1007.4 hPa | 1.52 mm | - | - | - |
| 1778028395 | 10.56° C | 93% | 1007.5 hPa | 1.78 mm | - | - | - |
| 1778028095 | 10.56° C | 93% | 1007.3 hPa | 1.78 mm | - | - | - |
| 1778027795 | 10.56° C | 93% | 1007.3 hPa | 2.03 mm | - | - | - |
* Rain latest hour (hover to see other rain measurements)
** Current wind speed in m/s (hover to see current wind gust speed)